Regional Weather Roundup
Issued by NWS

Home | Current Version | Previous Version | Graphics & Text | Print | Product List | Glossary Off
Versions: 1 2 3 4 5 6 7 8 9 10 11 12 13 14 15 16 17 18 19 20 21 22 23 24 25 26 27 28 29 30 31 32 33 34 35 36 37 38 39 40 41 42 43 44 45 46 47 48 49 50

000
ASUS43 KMKX 210211
RWRWI

WISCONSIN REGIONAL WEATHER ROUNDUP
NATIONAL WEATHER SERVICE MILWAUKEE/SULLIVAN WI
900 PM CDT WED AUG 20 2014

NOTE: "FAIR" INDICATES FEW OR NO CLOUDS BELOW 12,000 FEET WITH NO
SIGNIFICANT WEATHER AND/OR OBSTRUCTIONS TO VISIBILITY.

WIZ001-002-006>008-014>016-023>028-210300-
NORTHWEST WISCONSIN

CITY           SKY/WX    TMP DP  RH WIND       PRES   REMARKS
SUPERIOR ARPT  CLEAR     62  60  93 NE6       29.93R
ASHLAND        CLOUDY    65  61  87 E5        29.94S
HAYWARD        CLEAR     63  62  97 CALM      29.93R
SIREN          PTCLDY    67  62  85 E3        29.92R
RICE LAKE      PTCLDY    66  61  83 E3        29.93R
LADYSMITH      PTCLDY    65  62  91 CALM      29.95R
EAU CLAIRE     PTCLDY    68  64  87 E5        29.91R
MENOMONIE      PTCLDY    70  64  81 E5        29.91R
NEW RICHMOND   PTCLDY    69  64  83 E6        29.90S
OSCEOLA        MOCLDY    70  67  91 E6        29.92R
$$

WIZ003>005-009-010-017-018-210300-
NORTH CENTRAL WISCONSIN

CITY           SKY/WX    TMP DP  RH WIND       PRES   REMARKS
WOODRUFF       CLOUDY    65  59  80 NE3       29.96S
RHINELANDER    CLOUDY    64  61  90 NE5       29.96S
EAGLE RIVER    CLOUDY    64  61  91 NE5       29.96S
LAND O LAKES   CLOUDY    62  60  93 CALM      29.98R
PHILLIPS       PTCLDY    63  60  92 NE5       29.94R
TOMAHAWK       CLEAR     59  57  93 CALM      29.95R
MEDFORD        PTCLDY    59  59 100 CALM      29.95R FOG
MERRILL        CLEAR     63  62  97 CALM      29.95R
$$

WIZ029-030-035-036-043>047-210300-
CENTRAL WISCONSIN

CITY           SKY/WX    TMP DP  RH WIND       PRES   REMARKS
WAUSAU         CLEAR     66  62  87 CALM      29.93R
MOSINEE        CLEAR     63  63 100 VRB3      29.95R
MARSHFIELD     MOCLDY    67  62  84 CALM      29.93R
STEVENS POINT  CLEAR     63  60  91 CALM      29.94R
WAUPACA        PTCLDY    68  64  88 CALM      29.94R
WAUTOMA        PTCLDY    67  65  93 CALM      29.93R
WISC RAPIDS    PTCLDY    65  62  90 E3        29.94R
CAMP DOUGLAS   MOCLDY    68  68 100 CALM      29.92R
$$

WIZ011>013-019>022-031-037>040-048>050-210300-
NORTHEAST WISCONSIN

CITY           SKY/WX    TMP DP  RH WIND       PRES   REMARKS
ANTIGO         CLEAR     62  60  94 E3        29.95S
STURGEON BAY   MOCLDY    64  61  88 E5        29.94R
GREEN BAY      CLEAR     64  62  93 CALM      29.93R
MANITOWOC      CLEAR     65  64  97 CALM      29.94R FOG
APPLETON       PTCLDY    70  61  73 VRB5      29.94R
CLINTONVILLE   CLEAR     64  63  94 CALM      29.93R
OSHKOSH        PTCLDY    71  64  78 NE6       29.93R
$$

WIZ032>034-041-042-053>061-210300-
SOUTHWEST WISCONSIN

CITY           SKY/WX    TMP DP  RH WIND       PRES   REMARKS
LA CROSSE      PTCLDY    77  68  73 E3        29.88R
SPARTA         MOCLDY    72  65  79 CALM      29.92R
VIROQUA        FAIR      73  68  84 S3        29.92R
BOSCOBEL       MOCLDY    74  67  78 S3        29.90R
PRAIRIE DU CHI MOCLDY    72  65  80 CALM      29.89S
PLATTEVILLE    FAIR      70  68  91 CALM      29.93R
$$

WIZ056-057-062-063-064-067-068-210300-
SOUTH CENTRAL WISCONSIN

CITY           SKY/WX    TMP DP  RH WIND       PRES   REMARKS
BARABOO/DELLS  MOCLDY    73  65  77 NE7       29.91R
LONE ROCK      MOCLDY    79  70  74 W3        29.90R HX  82
WATERTOWN      PTCLDY    71  68  90 E6        29.91R
MADISON        CLOUDY    75  68  78 CALM      29.89S
MIDDLETON      MOCLDY    76  68  75 CALM      29.90S
MONROE         MOCLDY    73  68  83 W7        29.91S
JANESVILLE     MOCLDY    79  66  65 SW5       29.90R HX  81
$$

WIZ051-052-058>065-066-070>072-210300-
SOUTHEAST WISCONSIN

CITY           SKY/WX    TMP DP  RH WIND       PRES   REMARKS
MILWAUKEE      MOCLDY    68  64  87 E3        29.92R
WAUKESHA       PTCLDY    66  63  88 E5        29.93R
MILWAUKEE/TIMM CLEAR     70  63  78 NE6       29.92R
RACINE         PTCLDY    70  65  84 E5        29.93R
BURLINGTON     CLOUDY    71  68  88 NE3       29.92R
KENOSHA        CLOUDY    70  68  93 NE5       29.92R FOG
FOND DU LAC    MOCLDY    71  66  84 SE9       29.93R
SHEBOYGAN      MOCLDY    63  61  93 NE3       29.94R
WEST BEND      PTCLDY    64  61  88 CALM      29.94R
JUNEAU         MOCLDY    70  40  34 E7        29.93R
$$

LSZ147-162-210300-
LAKE SUPERIOR

STATION/POSITION TIME  TEMP    WIND        PRES    WAVE
                       AIR SEA DIR/SP/G            HT/PER
                 (UTC) (F)     (DEG/KT/KT) (MB)    (FT/S)
W MID LAKE BUOY  0150   59 59   90/  4/  4 1014.3R   0
DEVILS ISLAND    0200   63     140/  5/  6 1014.1R
PORT WING        0140   66      40/  7/  8 1013.5R
SAXON HARBOR     0100   65        CALM     1013.9R
$$

LMZ867-665-643>646-210300-
LAKE MICHIGAN

STATION/POSITION TIME  TEMP    WIND        PRES    WAVE
                       AIR SEA DIR/SP/G            HT/PER
                 (UTC) (F)     (DEG/KT/KT) (MB)    (FT/S)
N MID LAKE BUOY  0150   63 62  220/  4/  6 1013.3R   0
NORTHPORT PIER   0100   65     160/  3/  4 1013.5R
SISTER BAY       0141   64     140/  2/  5   N/A
KEWAUNEE LAKESHO 0100   66     170/  4/  5 1012.3R
SHEBOYGAN LAKESH 0200   67 64   70/  3/  3 1013.8R
ATWATER BUOY     0200   69      60/  6/  8 1014.3R
MILWAUKEE LAKESH 0100   69      50/  6/  7   N/A
S MID LAKE BUOY  0150   69 68   70/  8/ 10 1012.6R   0
KENOSHA   LAKESH 0200   71      70/  6/  8 1012.5R
$$

TC  - TEMPERATURE IN CELSIUS
VSB - VISIBILITY IN STATUTE MILES
WCI - WIND CHILL INDEX
HX  - HEAT INDEX




USA.gov is the U.S. government's official web portal to all federal, state and local government web resources and services.